Location: Windsor
(43.2292°N, 89.3015°W)
Time: 06:21:37
(UTC+00:00)

RS-44 - Pass Details

Date: 06 July 2022
Orbit: 1175 x 1510 km, 82.5° (Epoch: 14 August)

Event Time Altitude Azimuth Distance (km) Brightness Sun altitude
Rises 02:42:59 0° 209° (SSW) 4,373 ? -9.8°
Reaches altitude 10° 02:45:52 10° 215° (SW) 3,449 ? -10.2°
Maximum altitude 02:53:46 47° 287° (WNW) 1,858 ? -11.2°
Drops below altitude 10° 03:02:11 10° 359° (N) 3,655 ? -12.2°
Sets 03:05:21 0° 6° (N) 4,655 ? -12.6°
